Location: Newark
(52.8300°N, 8.0000°E)
Time: 07:04:18
(UTC+00:00)

STARLINK-1066 - Pass Details

Date: 30 January 2020
Orbit: 348 x 351 km, 53.0° (Epoch: 25 February)

Event Time Altitude Azimuth Distance (km) Brightness Sun altitude
Rises 18:10:20 0° 282° (WNW) 2,162 8.1 -18.3°
Reaches altitude 10° 18:12:38 10° 266° (W) 1,316 6.8 -18.7°
Maximum altitude 18:14:56 21° 214° (SW) 858 5.0 -19.0°
Enters shadow 18:16:09 16° 180° (S) 1,005 5.0 -19.2°
